HORYU-4

Last updated on Sun Apr 12 2026 00:03:55 GMT+0000 (Coordinated Universal Time)

1 41340U 16012D 26101.53831593 .00113998 00000+0 88836-3 0 9995 2 41340 30.9889 197.0925 0006086 101.3666 258.7673 15.70216136560266
UTC large
Height (km)
Speed (km/s)
/
Latitude / Longitude
Inclination (degrees)
Orbital Period (minutes)
Azimuth
Elevation
Range (km)
Doppler Factor

Next 0 passes for location: London (51.5072 / 0.1276)

Sorry there are no passes over London.